Location: Hochstatterhof
(48.7256°N, 10.3487°E)
Time: 01:42:53
(UTC+00:00)

Cosmos 2221 - Pass Details

Date: 26 September 2023
Orbit: 584 x 608 km, 82.5° (Epoch: 01 December)

Event Time Altitude Azimuth Distance (km) Brightness Sun altitude
Exits shadow 04:10:59 15° 255° (WSW) 1,657 4.1 -10.6°
Maximum altitude 04:13:09 21° 292° (WNW) 1,388 3.9 -10.2°
Drops below altitude 10° 04:16:25 10° 342° (NNW) 1,961 5.0 -9.7°
Sets 04:19:09 0° 359° (N) 2,875 6.1 -9.2°
